Regional Weather Roundup
Issued by NWS Little Rock, AR

Home | Current Version | Previous Version | Graphics & Text | Print | Product List | Glossary On
Versions: 1 2 3 4 5 6 7 8 9 10 11 12 13 14 15 16 17 18 19 20 21 22 23 24 25 26 27 28 29 30 31 32
000
ASUS44 KLZK 181605
RWRLZK

WEATHER ROUNDUP FOR ARKANSAS
NATIONAL WEATHER SERVICE LITTLE ROCK AR
1100 AM CDT FRI AUG 18 2017

NOTE: "FAIR" INDICATES FEW OR NO CLOUDS BELOW 12,000 FEET WITH NO
SIGNIFICANT WEATHER AND/OR OBSTRUCTIONS TO VISIBILITY.

ARZ001-003-010-029-181700-
NORTHWEST ARKANSAS

CITY           SKY/WX    TMP DP  RH WIND       PRES   REMARKS
FAYETTEVILLE   SUNNY     83  74  74 SW10      30.05F HX  89
FORT SMITH     SUNNY     85  76  74 E5        30.02F HX  94
HARRISON       MOSUNNY   82  72  71 W7        30.06F HX  87
BENTONVILLE    MOSUNNY   79  73  83 W7        30.06F
ROGERS         CLOUDY    79  74  84 SW7       30.06F
SILOAM SPGS    CLOUDY    82  72  69 S8        30.04F HX  87
HIGHFILL       PTSUNNY   81  77  88 S6        30.05F HX  88
SPRINGDALE     PTSUNNY   81  73  78 SW8       30.07F HX  85
$$

ARZ004-005-016-181700-
NORTH CENTRAL ARKANSAS

CITY           SKY/WX    TMP DP  RH WIND       PRES   REMARKS
BATESVILLE     SUNNY     84  70  61 SW3       30.04S HX  88
FLIPPIN        SUNNY     82  68  61 W6        30.03S HX  85
MTN HOME       SUNNY     81  69  67 VRB3      30.05F
$$

ARZ040-041-181700-
WEST CENTRAL ARKANSAS

CITY           SKY/WX    TMP DP  RH WIND       PRES   REMARKS
MENA           SUNNY     86  79  79 CALM      30.08S HX  99
MOUNT IDA      SUNNY     86  71  60 CALM      30.03F HX  91
$$

ARZ009-017-025-026-028-181700-
NORTHEAST ARKANSAS

CITY           SKY/WX    TMP DP  RH WIND       PRES   REMARKS
CORNING        FAIR      82  72  69 CALM      30.02F HX  87
JONESBORO      SUNNY     84  69  60 NW3       30.02F HX  88
NEWPORT        SUNNY     84  70  62 VRB3      30.04S HX  88
WALNUT RIDGE   SUNNY     82  68  61 W7        30.03S HX  85
BLYTHEVILLE    SUNNY     83  68  60 W3        30.03S HX  86
NW BLYTHEVILLE SUNNY     88  68  51 W6        30.02F HX  91
$$

ARZ022-023-033-042-044-181700-
CENTRAL ARKANSAS

CITY           SKY/WX    TMP DP  RH WIND       PRES   REMARKS
LITTLE ROCK    PTSUNNY   85  74  69 CALM      30.04S HX  92
N LITTLE ROCK    N/A     84  75  75 CALM      30.05S HX  92
JACKSONVILLE   SUNNY     85  75  72 CALM      30.03S HX  93
CONWAY           N/A     84  77  79 CALM      30.03S HX  94
SEARCY           N/A    N/A N/A N/A MISG        N/A
HOT SPRINGS    SUNNY     85  72  65 W5        30.05S HX  91
RUSSELLVILLE   SUNNY     82  76  81 CALM      30.04S HX  89
CLINTON        FAIR      82  75  78 CALM      30.04F HX  89
$$

ARZ036-181700-
EAST ARKANSAS

CITY           SKY/WX    TMP DP  RH WIND       PRES   REMARKS
WEST MEMPHIS   SUNNY     84  71  65 VRB3      30.02F HX  89
$$

ARZ050-053-066-070-073-181700-
SOUTHWEST ARKANSAS

CITY           SKY/WX    TMP DP  RH WIND       PRES   REMARKS
ARKADELPHIA    FAIR      87  76  69 VRB3      30.04S HX  97
CAMDEN         MOSUNNY   90  72  55 CALM      30.03F HX  96
TEXARKANA      PTSUNNY   84  77  79 SW7       30.05S HX  94
EL DORADO      PTSUNNY   86  76  71 W8        30.05S HX  96
DE QUEEN       MOSUNNY   84  77  79 CALM      30.03S HX  94
$$

ARZ056-057-069-181700-
SOUTHEAST ARKANSAS

CITY           SKY/WX    TMP DP  RH WIND       PRES   REMARKS
PINE BLUFF     SUNNY     85  74  69 W3        30.03F HX  92
MONTICELLO     MOSUNNY   86  73  65 CALM      30.04F HX  93

$$






USA.gov is the U.S. government's official web portal to all federal, state and local government web resources and services.